Regional Weather Roundup
Issued by NWS

Home | Current Version | Previous Version | Text Only | Print | Product List | Glossary Off
Versions: 1 2 3 4 5 6 7 8 9 10 11 12 13 14 15 16 17 18 19 20 21 22 23 24 25 26 27 28 29 30 31 32 33 34 35 36 37 38 39 40 41 42 43 44 45 46 47 48 49 50

274
ASUS43 KLMK 290910
RWRKY
KENTUCKY REGIONAL WEATHER ROUNDUP
NATIONAL WEATHER SERVICE LOUISVILLE KY
500 AM EDT SAT APR 29 2017

NOTE "FAIR" INDICATES FEW OR NO CLOUDS BELOW 12,000 FEET
WITH NO SIGNIFICANT WEATHER AND/OR OBSTRUCTIONS TO VISIBILITY.

KYZ001>023-026-027-061>063-070>075-291000-
WESTERN AND SOUTH CENTRAL KENTUCKY

CITY           SKY/WX    TMP DP  RH WIND       PRES   REMARKS
PADUCAH        CLOUDY    77  67  71 S9        29.81S
HENDERSON        N/A    N/A N/A N/A MISG        N/A
OWENSBORO      CLOUDY    69  65  86 E8        29.88F
HOPKINSVILLE   CLOUDY    74  68  80 S8        29.90R
BOWLING GREEN  CLOUDY    76  69  79 S9        29.95R
GLASGOW        CLOUDY    75  65  71 S9        29.98R
$$

KYZ024-025-028>034-038-045-046-053-291000-
NORTH CENTRAL KENTUCKY

CITY           SKY/WX    TMP DP  RH WIND       PRES   REMARKS
LOUISVILLE/SDF CLOUDY    69  65  86 S10       29.93S
LOUISVILLE/LOU NOT AVBL
FORT KNOX      LGT RAIN  66  64  94 S3        29.94R
$$

KYZ035>037-039>044-047>052-055>060-089>105-291000-
NORTHEAST KENTUCKY

CITY           SKY/WX    TMP DP  RH WIND       PRES   REMARKS
LEXINGTON      LGT RAIN  65  60  84 SW3       30.03F
COVINGTON      LGT RAIN  64  63  96 S14       29.91F
FRANKFORT      CLOUDY    65  60  84 SW5       29.98F
$$

KYZ054-064>069-076>088-106>120-291000-
SOUTHEAST KENTUCKY

CITY           SKY/WX    TMP DP  RH WIND       PRES   REMARKS
JACKSON        PTCLDY    72  63  73 VRB3      30.07R
LONDON         CLOUDY    65  61  87 CALM      30.07R
SOMERSET       CLOUDY    70  63  78 SE3       30.05S
MIDDLESBORO    CLOUDY    75  65  69 S16G24    30.06F
MONTICELLO     CLOUDY    71  66  84 E5        30.05R
$$





USA.gov is the U.S. government's official web portal to all federal, state and local government web resources and services.